This demonstration page uses our WeatherBlox Daily Observations layout. Learn more.

Left ArrowRight Arrow

36.17497, -115.13722

Hourly Observations for August 11, 2021

Temp ( °F °C ) Dew Point ( °F °C ) Humidity (%) Winds ( mph kmh ) Pressure ( in mb ) Visibility ( mi km ) Precip ( " mm )
12:53 am 00:53 Clear with Smoke 87 30.6 54 12.2 32 32 E 9 15 29.89 1012 10 16 0.00 0.00
1:53 am 01:53 Clear with Smoke 84 28.9 59 15 43 43 NNE 8 13 29.88 1012 10 16 0.00 0.00
2:53 am 02:53 Clear with Smoke 83 28.3 60 15.6 46 46 NNE 7 11 29.89 1012 10 16 0.00 0.00
3:53 am 03:53 Clear with Smoke 83 28.3 60 15.6 46 46 NNE 8 13 29.90 1012 10 16 0.00 0.00
4:53 am 04:53 Clear with Smoke 82 27.8 60 15.6 47 47 NNE 3 6 29.91 1013 10 16 0.00 0.00
5:53 am 05:53 Clear with Smoke 81 27.2 60 15.6 49 49 N 6 9 29.93 1013 10 16 0.00 0.00
6:53 am 06:53 Sunny with Smoke 82 27.8 60 15.6 47 47 NNE 6 9 29.95 1014 10 16 0.00 0.00
7:53 am 07:53 Sunny with Smoke 84 28.9 61 16.1 46 46 NE 6 9 29.97 1015 10 16 0.00 0.00
8:53 am 08:53 Sunny with Smoke 85 29.4 61 16.1 45 45 ENE 3 6 29.97 1015 10 16 0.00 0.00
9:53 am 09:53 Sunny with Smoke 87 30.6 61 16.1 42 42 SE 9 15 29.98 1015 10 16 0.00 0.00
10:53 am 10:53 Sunny with Smoke 90 32.2 61 16.1 38 38 ESE 5 7 29.97 1015 10 16 0.00 0.00
11:53 am 11:53 Sunny with Smoke 93 33.9 61 16.1 34 34 SE 9 15 29.96 1014 10 16 0.00 0.00
12:53 pm 12:53 Sunny with Smoke 95 35 61 16.1 32 32 E 6 9 29.94 1014 10 16 0.00 0.00
1:53 pm 13:53 Sunny with Smoke 96 35.6 59 15 29 29 VRB 3 6 29.91 1013 10 16 0.00 0.00
2:53 pm 14:53 Sunny with Smoke 98 36.7 59 15 27 27 SSE 5 7 29.88 1012 10 16 0.00 0.00
3:53 pm 15:53 Sunny with Smoke 100 37.8 58 14.4 25 25 SSE 9 15 29.84 1010 10 16 0.00 0.00
4:53 pm 16:53 Sunny with Smoke 101 38.3 58 14.4 24 24 E 9 15 29.81 1010 10 16 0.00 0.00
5:53 pm 17:53 Sunny with Smoke 100 37.8 57 13.9 24 24 ESE 12 19 29.81 1009 10 16 0.00 0.00
6:53 pm 18:53 Sunny with Smoke 98 36.7 57 13.9 25 25 E 12 19 29.81 1009 10 16 0.00 0.00
7:53 pm 19:53 Clear with Smoke 96 35.6 58 14.4 28 28 ESE 10 17 29.83 1010 10 16 0.00 0.00
8:53 pm 20:53 Clear with Smoke 94 34.4 60 15.6 32 32 ESE 9 15 29.84 1010 10 16 0.00 0.00
9:53 pm 21:53 Clear with Smoke 91 32.8 60 15.6 35 35 E 8 13 29.86 1011 10 16 0.00 0.00
10:53 pm 22:53 Clear with Smoke 91 32.8 60 15.6 35 35 ESE 13 20 29.88 1012 10 16 0.00 0.00
11:53 pm 23:53 Clear with Smoke 90 32.2 60 15.6 37 37 ESE 8 13 29.88 1012 10 16 0.00 0.00

Powered by AerisWeather